www.pogodaiklimat.ru

Погода и климат >> Архив погоды >> Алжир >> Chlef


ПОГОДА в Chlef

  • Прогноз погоды в Chlef
  • Монитор погоды в Chlef
  • Климат города

АРХИВ ПОГОДЫ в Chlef

Время (UTC), дата Ветер
(напр.,м/с)
 
Видим.   Явления Облачность Т
(С)
Тd
(С)
f
(%)
Тe
(С)
Тes
(С)
Комфортность P
(гПа)
Po
(гПа)
Тmin
(С)
Tmax
(С)
R
(мм)
R24
(мм)
S
(см)
21 10.10 штиль 0 10 км ясно +23.0 +8.0 38 +24 +24 комфорт 1019.9 1020.0
00 11.10 ЮЗ 3 10 км ясно +20.0 +6.7 42 +21 +21 комфорт 1020.3 1020.0
03 11.10 Ю 3 10 км ясно +18.0 +5.9 45 +18 +18 1020.4 1020.0
06 11.10 ЮЗ 5 15 км ясно +16.5 +5.1 47 +16 +16 1021.3 1021.0 +16.3
09 11.10 В 3 20 км ясно +22.0 +6.5 37 +23 +27 комфорт 1022.5 1023.0
12 11.10 ЮЗ 2 20 км ясно +29.6 +8.2 26 +29 +40 жарко 1021.2 1021.0
15 11.10 С 5 20 км ясно +31.3 +9.7 26 +31 +33 жарко 1020.0 1020.0
18 11.10 С 5 15 км ясно +27.2 +3.1 21 +26 +26 жарко 1020.7 1021.0 +32.0
21 11.10 С 3 10 км ясно +23.5 +8.8 39 +24 +24 комфорт 1022.8 1023.0
00 12.10 штиль 0 10 км ясно +19.0 +5.2 40 +19 +19 1023.2 1023.0
03 12.10 штиль 0 10 км ясно +17.8 +5.1 43 +18 +18 1023.5 1024.0
06 12.10 штиль 0 12 км ясно +14.0 +4.9 54 +14 +14 1025.1 1025.0 +13.9
09 12.10 штиль 0 15 км ясно +21.3 +4.4 33 +22 +28 комфорт 1026.3 1026.0
12 12.10 штиль 0 15 км ясно +28.5 +4.2 21 +27 +41 жарко 1025.7 1026.0
15 12.10 СВ 4 15 км 3/0
[Ci sp]
+32.0 +3.5 16 +29 +32 жарко 1023.8 1024.0
18 12.10 С 5 15 км 3/0
[Ci sp]
+26.5 +4.2 24 +25 +25 комфорт 1024.8 1025.0 +32.1
21 12.10 штиль 0 10 км ясно +21.3 +4.4 33 +22 +22 комфорт 1025.7 1026.0
00 13.10 штиль 0 10 км ясно +17.5 +3.8 40 +18 +18 1025.7 1026.0
03 13.10 С 3 10 км ясно +16.5 +3.7 42 +16 +16 1025.3 1025.0
06 13.10 СВ 4 15 км ясно +15.5 +3.4 44 +15 +15 1026.0 1026.0 +15.3
09 13.10 СВ 3 15 км ясно +20.7 +3.0 31 +21 +26 комфорт 1027.0 1027.0
12 13.10 В 3 15 км ясно +29.0 +4.8 21 +27 +36 жарко 1025.5 1026.0
15 13.10 штиль 0 15 км ясно +33.0 +10.9 26 +33 +39 жарко 1023.3 1023.0
18 13.10 С 4 10 км ясно +28.8 +3.0 19 +27 +27 жарко 1023.5 1024.0 +33.3
21 13.10 С 3 10 км ясно +24.5 +3.1 25 +24 +24 комфорт 1024.1 1024.0
00 14.10 СВ 4 10 км ясно +23.0 +2.9 27 +23 +23 комфорт 1023.9 1024.0
03 14.10 СВ 4 10 км ясно +20.0 +6.1 40 +21 +21 комфорт 1023.8 1024.0
06 14.10 СВ 3 10 км ясно +16.5 +3.7 42 +16 +16 1024.3 1024.0 +16.0
09 14.10 СВ 4 15 км ясно +23.0 +5.1 31 +23 +26 комфорт 1025.4 1025.0
12 14.10 штиль 0 15 км ясно +31.5 +6.8 21 +30 +44 жарко 1023.7 1024.0
15 14.10 С 5 15 км ясно +32.5 +4.3 17 +30 +32 жарко 1022.2 1022.0
18 14.10 С 4 15 км ясно +28.6 +10.0 31 +29 +29 жарко 1022.6 1023.0 +33.6
21 14.10 СВ 4 10 км ясно +25.5 +12.3 44 +27 +27 жарко 1024.0 1024.0
00 15.10 СВ 2 10 км ясно +21.0 +17.0 78 +25 +25 комфорт 1024.0 1024.0
03 15.10 СВ 4 10 км ясно +20.4 +5.7 38 +21 +21 комфорт 1023.7 1024.0
06 15.10 СВ 3 15 км ясно +18.3 +1.6 33 +19 +19 1024.4 1024.0 +18.2
09 15.10 СВ 3 15 км ясно +23.0 -0.7 21 +24 +28 комфорт 1025.0 1025.0
12 15.10 ЮВ 3 15 км ясно +30.8 +0.7 14 +28 +37 жарко 1022.8 1023.0
15 15.10 Ю 5 15 км ясно +31.0 +7.5 23 +30 +32 жарко 1020.8 1021.0
18 15.10 С 3 15 км ясно +27.5 +8.5 30 +27 +27 жарко 1021.2 1021.0 +32.5
21 15.10 ЮЗ 3 10 км ясно +23.3 +9.4 41 +25 +25 комфорт 1022.1 1022.0
00 16.10 ЮЗ 3 10 км ясно +20.3 +8.9 48 +22 +22 комфорт 1022.0 1022.0
03 16.10 ЮЗ 3 10 км ясно +19.3 +8.9 51 +20 +20 1021.9 1022.0
06 16.10 ЮЗ 3 15 км ясно +19.5 +6.7 43 +21 +21 комфорт 1022.7 1023.0 +18.0
09 16.10 ЮЗ 4 15 км ясно +24.2 +8.3 36 +25 +28 комфорт 1024.3 1024.0
12 16.10 штиль 0 15 км ясно +30.0 +9.9 29 +30 +44 жарко 1022.9 1023.0
15 16.10 штиль 0 15 км 4/4 800 м
[Cu med, cong]
+32.0 +9.3 25 +31 +35 жарко 1020.8 1021.0
18 16.10 С 5 12 км 4/0
[Ac trans]
+26.7 +9.3 33 +27 +27 жарко 1021.1 1021.0 +32.1
21 16.10 СВ 2 10 км 3/0
[Ac trans]
+22.7 +7.8 38 +24 +24 комфорт 1022.6 1023.0
00 17.10 штиль 0 10 км ясно +22.1 +8.0 40 +23 +23 комфорт 1022.3 1022.0
03 17.10 С 2 10 км ясно +17.8 +7.7 52 +19 +19 1022.2 1022.0
06 17.10 штиль 0 12 км ясно +15.8 +7.7 59 +16 +16 1022.6 1023.0 +15.7
09 17.10 В 3 15 км 1/0
[Ac trans]
+22.6 +7.9 39 +24 +28 комфорт 1023.7 1024.0
12 17.10 ЮЗ 3 15 км 1/0
[Ac trans]
+28.7 +8.0 27 +28 +37 жарко 1021.6 1022.0
15 17.10 З 3 15 км 3/0
[Ac trans]
+31.0 +6.3 21 +29 +32 жарко 1019.0 1019.0

 

Местоположение метеостанции Chlef (Алжир): широта 36.22 долгота 1.33 высота над уровнем моря 144 м.

В архиве по умолчанию представлена погода в Chlef за последнюю неделю. Архивные данные за месяц целиком и за предыдущие месяцы, начиная с января 2011 года, Вы можете получить, выбрав интересующий диапазон дат из раскрывающегося списка и нажав кнопку "Ввод!".

Внимание! Время в таблицах - всемирное. Для получения местного времени необходимо прибавить поправку, которая в Chlef равна 1 ч.

Смотрите также архив погоды в соседних городах и на ближайших метеорологических станциях:

Погода в Tenes (Алжир) (31 км)
Погода в Miliana (Алжир) (81 км)
Погода в Relizane (Алжир) (89 км)
Погода в Tiaret (Алжир) (98 км)
Погода в Mostaganem Ville (Алжир) (115 км)
Погода в Medea (Алжир) (126 км)
Погода в Ksar Chellala (Алжир) (147 км)
Погода в Arzew (Алжир) (151 км)
Погода в Mascara Ghriss (Алжир) (154 км)
Погода в Alger (Алжир) (170 км)

Пояснения к столбцам:

Ветер - указаны скорость ветра в м/с - средняя за 10 мин, порывы в срок и между сроками (в фигурных скобках) и направление, откуда дует ветер: С - северный, СВ - северо-восточный, В - восточный, ЮВ - юго-восточный, Ю - южный, ЮЗ - юго-западный, З - западный, СЗ - северо-западный.
Видимость - горизонтальная дальность видимости в метрах или километрах. При видимости от 1 до 10 км при отсутствии осадков обычно наблюдается дымка, при ухудшении видимости до 1 км и менее - туман. В сухую погоду видимость может ухудшаться дымом, пылью или мглою.
Явления - указаны атмосферные явления, наблюдавшиеся в срок или в последний час перед сроком; фигурными скобками обозначены явления, наблюдавшиеся между сроками (за 1-3 часа до срока); квадратными скобками обозначены град или гололедные отложения с указанием их диаметра в мм.
Облачность - указаны через наклонную черту общая и нижняя облачность в баллах и высота нижней границы облаков в метрах; квадратными скобками обозначены формы облаков: Ci - перистые, Cs - перисто-слоистые, Cc - перисто-кучевые, Ac - высококучевые, As - высокослоистые, Sc - слоисто-кучевые, Ns - слоисто-дождевые, Cu - кучевые, Cb - кучево-дождевые. Подробнее классификацию облаков см. в Атласе облаков (PDF).
T - Температура воздуха - температура, измеренная на высоте 2 м над землей.
Td - Температура точки росы - температура, при понижении до которой содержащийся в воздухе водяной пар достигнет насыщения.
f - Относительная влажность воздуха - влажноcть воздуха, измеренная на высоте 2 м над землей.
Te - Эффективная температура - температура, которую ощущает одетый по сезону человек в тени. Характеристика душности погоды. При расчете учитывается влияние влажности воздуха и скорости ветра на теплоощущения человека.
Tes - Эффективная температура на солнце - температура, которую ощущает человек, с поправкой на солнечный нагрев. Характеристика знойности погоды. Зависит от высоты солнца над горизонтом, облачности и скорости ветра. Ночью, в пасмурную погоду, а также при ветре 12 м/с и более поправка равна нулю.
P - Атмосферное давление - приведенное к уровню моря атмосферное давление.
Po - Атмосферное давление - измеренное на уровне метеостанции атмосферное давление.
Tmin - Минимальная температура - минимум температуры воздуха на высоте 2 м над землей.
Tmax - Максимальная температура - максимум температуры воздуха на высоте 2 м над землей.
R - Количество осадков - Количество выпавших осадков за период времени, мм. При наведении курсора мыши на число - период времени, за который выпало указанное количество осадков.
R24 - Количество осадков - Количество выпавших осадков за 24 часа, мм.
S - Снежный покров - Высота снежного покрова, см. При наведении курсора мыши на число - состояние снежного покрова и степень покрытия местности в баллах.